Location: Busenweiler
(48.3501°N, 8.4924°E)
Time: 06:47:01
(UTC+00:00)

Daily predictions for brighter satellites

Satellite Brightness Start Highest point End
(mag) Time Altitude Azimuth Time Altitude Azimuth Time Altitude Azimuth
NOSS 2-1 (D) 4.4 20:03:18 10° NNW 20:07:31 54° NE 20:13:24 10° ESE
S3M 4.1 20:02:46 10° S 20:08:59 83° W 20:15:09 10° N
Cosmos 1953 4.2 20:07:08 10° NNW 20:10:36 30° W 20:14:04 10° SSW
Cosmos 1697 Rocket 4.4 20:06:14 10° N 20:10:38 23° NE 20:15:01 10° E
Meteor 2-10 Rocket 3.9 20:06:30 10° NNW 20:11:30 62° W 20:16:24 10° S
Cosmos 2369 Rocket 4.4 20:07:33 10° NW 20:11:37 21° W 20:15:41 10° SSW
SPOT 5 3.4 20:07:56 10° SE 20:12:03 39° ENE 20:16:04 10° N
H-2A R/B 2.5 20:08:54 10° N 20:13:16 69° WNW 20:17:42 10° SSW
Tiangong 2.5 20:12:55 10° WSW 20:15:31 23° S 20:18:07 10° SE
Cosmos 1975 Rocket 3.1 20:11:50 10° S 20:16:17 77° E 20:20:43 10° NNE
CARTOSAT-1 3.6 20:13:38 10° SSE 20:17:57 81° ENE 20:22:17 10° NNW
IRAS Rocket 4.3 20:14:20 10° NNE 20:19:57 68° ESE 20:25:29 10° S
Cosmos 1656 4.4 20:15:46 10° NNW 20:20:58 43° NE 20:26:12 10° SE
Cosmos 2084 3.4 20:17:25 10° SSW 20:21:08 48° SE 20:24:52 10° NE
USA 276 2.6 20:26:15 10° SW 20:29:01 35° SSE 20:31:49 10° E
Spot 2 Rocket 3.7 20:26:04 10° SSE 20:31:05 64° ENE 20:36:09 10° N
ATLAS 2AS CENTAUR R/B 2.8 20:24:12 10° NW 20:31:26 88° NE 20:37:59 11° SE
Cosmos 1544 Rocket 3.5 20:29:05 10° N 20:33:26 72° E 20:37:45 10° SSE
Meteor 1-24 Rocket 3.6 20:28:29 10° S 20:33:47 81° E 20:39:14 10° NNE
MetOp-B 4.5 20:28:52 10° S 20:34:11 66° WSW 20:39:32 10° NNW
Lacrosse 5 1.9 20:30:55 10° NW 20:36:03 87° SW 20:40:57 11° SE
Cosmos 1371 Rocket 4.1 20:30:57 10° SSW 20:36:11 88° WNW 20:41:31 10° NNE
USA 234 4.0 20:30:15 10° E 20:36:34 52° NNE 20:42:53 10° NW
Cosmos 1452 Rocket 4.4 20:32:24 10° SSE 20:36:59 31° E 20:41:35 10° NE
X-37B 1.1 20:36:25 10° SW 20:38:57 30° SSE 20:41:29 10° ESE
Cosmos 1833 Rocket 3.9 20:36:05 10° SSE 20:40:11 22° E 20:44:24 10° NE
Terra 2.2 20:38:02 11° SE 20:42:27 54° ENE 20:47:07 10° N
FALCON 9 DEB 4.4 20:42:05 10° W 20:45:13 42° NNW 20:48:22 10° ENE
Cosmos 2184 Rocket 4.3 20:40:12 10° N 20:46:16 56° ENE 20:51:50 12° SSE
Resurs 01 Rocket 3.6 20:45:33 10° SSW 20:49:16 26° W 20:53:01 10° NW
Cosmos 724 4.3 20:46:23 10° SSW 20:52:05 61° ESE 20:57:48 10° NE
Helios 1A Rocket 2.9 20:51:31 12° SSE 20:55:17 83° WSW 20:59:25 10° NNW
CZ-4B R/B 3.6 20:53:08 10° NNW 20:55:29 23° WNW 20:57:49 10° WSW
Cosmos 1624 Rocket 4.4 20:51:20 10° SSW 20:56:32 66° WNW 21:01:44 10° NNE
Lacrosse 5 rocket 2.3 20:55:33 10° WNW 20:59:04 33° SW 21:01:56 15° SSE
Cosmos 1271 Rocket 3.2 20:56:47 10° NNW 21:00:44 61° W 21:04:25 11° S
Cosmos 2082 Rocket 4.0 21:01:01 12° ESE 21:03:12 14° E 21:06:08 10° ENE
SPOT 3 Rocket 4.4 21:00:19 10° S 21:05:17 46° W 21:10:19 10° NNW
NOSS 2-1 (E) 4.2 21:01:30 10° NW 21:06:06 70° SW 21:11:18 16° SSE
ERS-1 Rocket 3.1 21:03:41 12° S 21:08:19 73° WSW 21:13:22 10° NNW
RESURS DK-1 2.7 21:06:06 10° NNW 21:10:12 55° ENE 21:13:07 18° SE
CZ-2C R/B 3.7 21:12:00 10° NNE 21:16:39 88° ESE 21:21:10 10° SSW
ARIANE 5 R/B 2.6 21:18:10 18° SSE 21:21:31 87° WSW 21:26:00 10° NNW
Cosmos 1741 Rocket 4.0 21:16:38 10° NNW 21:22:00 85° ENE 21:25:51 19° SSE
Cosmos 2344 4.4 21:19:05 10° NW 21:27:44 72° NE 21:38:57 12° SE
SL-8 R/B 3.6 21:24:02 10° W 21:28:51 80° SSW 21:33:28 11° ESE
GP-B 4.0 21:27:34 10° NNE 21:31:38 34° E 21:33:53 21° SE
Cosmos 1455 4.0 21:28:32 10° NNW 21:31:45 26° W 21:34:58 10° SSW
Cosmos 2074 Rocket 4.3 21:28:35 10° NNW 21:34:49 67° W 21:40:09 14° S
ASTEX 1 3.8 21:34:57 10° NNE 21:39:50 50° E 21:42:46 23° SSE
COSMOS 2406 3.8 21:37:53 20° SSE 21:41:15 39° ESE 21:46:34 10° NE
Cosmos 2369 4.2 21:38:26 10° NNW 21:44:04 53° NE 21:48:09 19° SE
USA 267 3.2 21:37:55 10° ENE 21:44:27 69° SE 21:50:59 10° SW
SL-16 R/B 4.3 21:40:46 10° N 21:44:51 20° NE 21:48:53 10° E
Cosmos 2228 3.4 21:45:15 10° NNW 21:49:24 55° W 21:52:05 21° SSW
SPOT 5 4.4 21:46:39 10° SSW 21:50:15 24° W 21:53:49 10° NW
Tiangong 3.5 21:50:06 10° SW 21:50:36 12° SW 21:50:36 12° SW
Cosmos 1850 Rocket 4.5 21:47:00 10° NNW 21:52:04 53° WSW 21:55:21 21° S
Nadezhda 1 Rocket 4.0 21:47:09 15° S 21:52:22 83° W 21:58:29 10° N
Cosmos 1980 Rocket 2.7 21:47:05 10° NNW 21:52:42 55° ENE 21:56:37 20° SE
Cosmos 1606 Rocket 3.6 21:50:11 10° NNW 21:54:31 76° W 21:56:56 26° S
Cosmos 1703 4.3 21:51:22 12° SSW 21:54:45 42° WNW 21:58:26 10° N
Cosmos 1697 Rocket 2.7 21:49:39 10° NNW 21:55:18 82° WSW 21:58:44 25° SSE
Cosmos 1892 3.5 21:55:58 28° SE 21:57:06 35° E 22:00:33 10° NNE
SJ 16-02 4.0 21:56:24 10° NNE 21:57:53 11° NE 21:59:23 10° ENE
Cosmos 2154 Rocket 4.3 21:53:30 10° NNW 21:59:38 61° W 22:04:14 18° SSW
Cosmos 2084 Rocket 3.7 21:56:30 10° NW 22:00:20 55° NE 22:02:44 22° ESE
Meteor 1-11 4.4 21:57:30 24° SSE 22:00:46 55° E 22:06:13 10° NNE
USA 276 2.1 22:01:36 10° W 22:04:36 72° N 22:07:36 10° ENE
Cosmos 1328 3.9 22:04:05 24° SSW 22:06:23 75° W 22:10:25 10° N
Cosmos 1331 Rocket 4.1 22:04:07 14° SSW 22:08:44 80° WNW 22:14:05 10° NNE
X-37B 1.8 22:11:27 10° WSW 22:12:57 25° WSW 22:12:57 25° WSW
Cosmos 1408 2.4 22:15:25 42° SSE 22:16:25 71° E 22:19:52 10° NNE
Lacrosse 5 3.5 22:14:48 10° WNW 22:18:26 20° WSW 22:20:08 17° SSW
SAR-Lupe-4 4.3 22:15:27 10° N 22:18:56 50° WNW 22:21:00 22° SW
Cosmos 1726 Rocket 4.0 22:15:03 10° NNW 22:19:16 54° W 22:21:23 27° SSW
USA 234 3.2 22:14:25 19° SE 22:19:24 78° SW 22:26:00 10° NW
Terra 3.8 22:17:00 10° SW 22:20:32 20° W 22:24:05 10° NW
ATLAS 2AS CENTAUR R/B 4.2 22:16:19 10° WNW 22:21:25 22° WSW 22:25:25 13° SSW
Cosmos 1833 Rocket 3.0 22:18:01 10° SW 22:23:36 66° WNW 22:29:13 10° NNE
Cosmos 2322 Rocket 4.0 22:19:38 10° N 22:24:17 25° NE 22:28:55 10° E
Cosmos 1867 3.7 22:22:22 10° NW 22:27:52 72° NE 22:31:17 23° SE
Cosmos 2278 4.0 22:23:09 10° NNW 22:28:50 62° ENE 22:32:24 23° SE
ATLAS 5 CENTAUR R/B 3.0 22:30:25 18° ESE 22:30:25 18° ESE 22:32:42 10° ENE
SL-8 Rocket 4.0 22:23:54 10° N 22:30:11 87° W 22:33:46 27° S
ALOS 2 2.8 22:32:45 32° SE 22:34:39 65° ENE 22:39:01 10° N
Cosmos 1302 Rocket 3.9 22:31:55 25° SSW 22:35:02 87° ESE 22:40:17 10° NNE
Cosmos 2218 Rocket 4.0 22:35:50 10° N 22:42:16 85° W 22:45:53 28° S
Cosmos 2366 rocket 4.0 22:39:41 10° N 22:46:02 81° W 22:49:35 28° S
Cosmos 2082 Rocket 2.1 22:42:49 24° SSW 22:46:23 84° ESE 22:52:08 10° NNE
Cosmos 1602 Rocket 4.1 22:45:32 34° SE 22:46:52 45° E 22:51:00 10° NNE
RESURS DK-1 4.3 22:45:03 10° WNW 22:47:46 17° WSW 22:48:58 15° SW
H-2A R/B 3.4 22:45:30 10° NNE 22:49:42 73° ESE 22:51:09 40° S
Cosmos 2341 Rocket 4.5 22:44:15 10° NNW 22:50:25 54° W 22:54:07 24° SSW
Cosmos 2058 Rocket 3.9 22:49:05 10° NNW 22:53:14 42° W 22:55:04 27° SW
Spot 4 4.2 22:52:43 31° SSW 22:54:44 54° W 22:59:27 10° NNW
Cosmos 1825 2.1 22:58:50 45° SSW 22:59:53 76° W 23:03:39 10° N
Cosmos 2360 Rocket 3.8 22:58:56 10° NNW 23:03:57 30° NE 23:08:55 10° ESE
Cosmos 968 Rocket 4.2 23:00:27 10° NW 23:05:17 40° WSW 23:07:22 28° SSW
ERS-2 2.4 23:01:48 10° NNE 23:05:19 51° ESE 23:05:53 45° SE
Cosmos-2242 3.2 23:02:34 10° N 23:06:48 63° ENE 23:08:16 37° SE
SL-8 R/B 4.3 23:06:42 10° W 23:11:03 35° SSW 23:11:22 34° SSW
Cosmos 1626 Rocket 3.7 23:10:22 35° SSW 23:12:04 67° WNW 23:16:24 10° N
Cosmos 1869 3.9 23:12:27 10° NNW 23:16:08 43° W 23:17:08 35° SW
Cosmos 1606 3.1 23:13:23 10° N 23:17:11 55° ENE 23:18:18 39° SE
Cosmos 2058 3.8 23:16:21 30° SE 23:17:32 37° E 23:21:25 10° NNE
BREEZE-M DEB (TANK) 4.0 23:14:14 10° WNW 23:17:49 88° SSW 23:33:02 10° ESE
Cosmos 1825 Rocket 4.0 23:22:58 35° SE 23:24:18 48° E 23:28:28 10° NNE
ADEOS Rocket 3.7 23:20:28 28° S 23:24:30 62° W 23:32:06 10° NNW
COSMOS 2406 4.3 23:20:07 10° WSW 23:25:33 41° NW 23:31:00 10° NNE
Cosmos 1633 2.4 23:25:15 54° SW 23:25:54 73° W 23:29:23 10° N
USA 267 4.0 23:21:02 10° NE 23:27:24 56° NNW 23:33:45 10° W
SL-16 R/B 2.2 23:24:09 10° NNW 23:29:52 81° ENE 23:33:07 27° SSE
Meteor 2-20 4.4 23:32:16 30° SSW 23:35:30 80° W 23:41:38 10° N
Cosmos 1980 Rocket 3.4 23:31:38 10° NW 23:36:22 28° WSW 23:38:21 22° SW
SJ 16-02 1.5 23:32:52 10° NNW 23:37:19 71° ENE 23:39:13 33° SE
Cosmos 1486 Rocket 4.5 23:32:42 10° NNW 23:37:41 47° WSW 23:39:34 32° SSW
USA 276 2.2 23:37:27 10° WNW 23:40:27 68° N 23:43:27 10° E
Meteor 2-2 Rocket 4.4 23:36:32 10° N 23:42:33 76° ENE 23:45:55 28° SSE
Cosmos 1821 Rocket 4.2 23:36:36 10° NNW 23:42:47 62° W 23:45:54 30° SSW
Cosmos 2219 Rocket 4.0 23:39:26 10° NNW 23:44:19 29° NE 23:49:12 10° ESE
Cosmos 1340 Rocket 3.2 23:48:44 39° SE 23:49:45 50° E 23:53:36 10° NNE
CZ-2D R/B 4.2 23:47:15 10° NE 23:50:25 16° E 23:53:35 10° SE
